Weather History for KNBG - November, 2013

Change the Weather History Date:

Wednesday, November 27, 2013

  Actual Average Record
Temperature  
Mean Temperature 44 °F -  
Max Temperature 48 °F 66 °F 81 °F (2001)
Min Temperature 37 °F 49 °F 36 °F (2010)
Degree Days  
Heating Degree Days 22    
Moisture  
Dew Point 29 °F    
Average Humidity 58    
Maximum Humidity 79    
Minimum Humidity 38    
Precipitation  
Precipitation 0.00 in - - ()
Sea Level Pressure  
Sea Level Pressure 30.26 in    
Wind  
Wind Speed 10 mph (North)    
Max Wind Speed 14 mph    
Max Gust Speed 28 mph    
Visibility 10 miles    
Events Rain    
Averages and records for this station are not official NWS values.
T = Trace of Precipitation, MM = Missing Value Source: NWS Daily Summary

Daily Weather History Graph

Daily Weather History Graph

Search for Another Location

Airport or City:

Trip Planner

Search our weather history database for the weather conditions in past years. The results will help you decide how hot, cold, wet, or windy it might be!

Date:

Astronomy

Nov. 27, 2013 Rise Set
Actual Time 6:35 AM CST 5:00 PM CST
Civil Twilight 6:09 AM CST 5:26 PM CST
Nautical Twilight 5:39 AM CST 5:55 PM CST
Astronomical Twilight 5:11 AM CST 6:24 PM CST
Moon 1:00 AM CST (11/27) 1:16 PM CST (11/27)
Length of Visible Light 11h 17m
Length of Day
10h 25m
Waning Crescent, 31% of the Moon is Illuminated
Nov 27
Waning Crescent
Dec 2
New
Dec 9
First Quarter
Dec 17
Full
Dec 25
Last Quarter

Hourly Weather History & Observations

Time (CST) Temp. Windchill Dew Point Humidity Pressure Visibility Wind Dir Wind Speed Gust Speed Precip Events Conditions
12:55 AM 44.1 °F 38.6 °F 37.9 °F 79% 30.07 in 10.0 mi North 10.4 mph 25.3 mph N/A Rain Light Rain
2:55 AM 43.0 °F 37.7 °F 35.1 °F 74% 30.10 in 10.0 mi North 9.2 mph 27.6 mph N/A Rain Light Rain
3:55 AM 42.1 °F 35.7 °F 33.1 °F 70% 30.13 in - North 11.5 mph 20.7 mph N/A Rain Light Rain
4:55 AM 42.1 °F 34.9 °F 32.0 °F 67% 30.15 in - North 13.8 mph 24.2 mph N/A Rain Light Rain
5:55 AM 42.1 °F 36.1 °F 30.9 °F 65% 30.19 in - North 10.4 mph 25.3 mph N/A Rain Light Rain
6:13 AM 42.8 °F 37.0 °F 32.0 °F 66% 30.20 in 10.0 mi North 10.4 mph 20.7 mph N/A   Overcast
6:55 AM 42.1 °F 36.1 °F 32.0 °F 67% 30.22 in 10.0 mi North 10.4 mph 21.9 mph N/A   Overcast
7:22 AM 42.8 °F 36.6 °F 32.0 °F 66% 30.22 in 10.0 mi North 11.5 mph 23.0 mph N/A   Mostly Cloudy
7:55 AM 44.1 °F 38.6 °F 33.1 °F 65% 30.24 in 10.0 mi North 10.4 mph 17.3 mph N/A   Mostly Cloudy
8:55 AM 43.0 °F 36.0 °F 30.0 °F 60% 30.26 in 10.0 mi North 13.8 mph 26.5 mph N/A   Mostly Cloudy
9:55 AM 44.1 °F 37.7 °F 27.0 °F 51% 30.27 in 10.0 mi NNW 12.7 mph 27.6 mph N/A   Scattered Clouds
10:55 AM 45.0 °F 38.9 °F 30.0 °F 56% 30.27 in 10.0 mi North 12.7 mph 19.6 mph N/A   Partly Cloudy
11:55 AM 46.0 °F 41.0 °F 27.0 °F 47% 30.24 in 10.0 mi NNW 10.4 mph 21.9 mph N/A   Partly Cloudy
12:55 PM 48.0 °F - 28.0 °F 46% 30.23 in 10.0 mi NW 11.5 mph 20.7 mph N/A   Clear
1:55 PM 48.9 °F - 26.1 °F 41% 30.22 in 10.0 mi NNW 10.4 mph 16.1 mph N/A   Clear
2:55 PM 48.9 °F - 25.0 °F 39% 30.23 in 10.0 mi North 10.4 mph 23.0 mph N/A   Clear
3:55 PM 48.9 °F - 24.1 °F 38% 30.25 in 10.0 mi Variable 6.9 mph 17.3 mph N/A   Clear
4:55 PM 46.9 °F - 26.1 °F 44% 30.27 in 10.0 mi North 4.6 mph - N/A   Clear
5:55 PM 45.0 °F 42.6 °F 26.1 °F 48% 30.31 in 10.0 mi North 4.6 mph - N/A   Clear
6:55 PM 42.1 °F 40.2 °F 27.0 °F 55% 30.34 in 10.0 mi North 3.5 mph - N/A   Clear
7:55 PM 41.0 °F 39.0 °F 28.0 °F 60% 30.36 in 10.0 mi NNE 3.5 mph - N/A   Clear
8:55 PM 41.0 °F 38.0 °F 27.0 °F 57% 30.39 in 10.0 mi NNE 4.6 mph - N/A   Clear
9:55 PM 39.9 °F 36.7 °F 28.0 °F 63% 30.41 in 10.0 mi North 4.6 mph - N/A   Clear
10:55 PM 39.0 °F 32.3 °F 27.0 °F 62% 30.41 in 10.0 mi NNE 10.4 mph - N/A   Clear
11:55 PM 37.0 °F 31.6 °F 26.1 °F 65% 30.41 in 10.0 mi NNE 6.9 mph - N/A   Clear